www.pogodaiklimat.ru

Погода и климат >> Архив погоды >> Пакистан >> Лахор аэропорт


ПОГОДА в Лахор аэропорту

  • Прогноз погоды в Лахор аэропорту
  • Монитор погоды в Лахор аэропорту

АРХИВ ПОГОДЫ в Лахор аэропорту

Время (UTC), дата Ветер
(напр.,м/с)
 
Видим.   Явления Облачность Т
(С)
Тd
(С)
f
(%)
Тe
(С)
Тes
(С)
Комфортность P
(гПа)
Po
(гПа)
Тmin
(С)
Tmax
(С)
R
(мм)
R24
(мм)
S
(см)
18 14.05 штиль 0 4000 м мгла 4/0
[Ac trans]
+28.5 +12.4 37 +30 +30 жарко 1004.6 980.3
21 14.05 В 3 4000 м мгла 6/3 1200 м
[Sc Ac As]
+27.0 +12.5 41 +29 +29 жарко 1004.3 979.9
00 15.05 штиль 0 4000 м дым 6/3 1200 м
[Sc diur, vesp Ac As]
+25.0 +14.1 51 +27 +27 жарко 1004.7 980.1
03 15.05 ЮЗ 5 4000 м в посл. час дождь 9/4 1200 м
[Sc diur, vesp Ac As]
+26.5 +16.0 52 +30 +31 душно 1008.5 984.0 +24.6 0.0
06 15.05 СВ 4 4000 м мгла 8/4 1200 м
[Sc Ac As]
+30.5 +16.2 42 +34 +38 очень
душно
1006.8 982.6
09 15.05 ЮВ 5 4000 м мгла 8/4 1200 м
[Sc Ac As]
+33.0 +16.6 38 +36 +39 очень
душно
1006.7 982.7
12 15.05 Ю 6 4000 м мгла 8/4 1200 м
[Sc Ac As]
+32.0 +16.2 39 +35 +35 очень
душно
1004.8 980.8 +33.5
15 15.05 штиль 0 4000 м мгла 9/4 1200 м
[Sc Ac As]
+29.0 +15.3 43 +32 +32 душно 1005.6 981.3
18 15.05 З 4 4000 м мгла 8/4 1200 м
[Sc diur, vesp Ac As]
+27.0 +14.6 47 +30 +30 душно 1006.4 982.0
21 15.05 С 7 4000 м гроза, ливневой дождь 10/5 900 м
[Cb cap Ac As]
+25.5 +15.7 55 +29 +29 душно 1008.3 983.7 0.0
00 16.05 СВ 4 4000 м дым {гроза, дождь} 9/5 1200 м
[Sc diur, vesp Ac As]
+22.0 +15.4 66 +26 +26 душно 1007.4 982.5 0.0
03 16.05 С 5 4000 м дым 8/5 1200 м
[Sc diur, vesp Ac As]
+24.0 +16.8 64 +28 +29 душно 1008.8 984.0 +21.0
06 16.05 СВ 3 4000 м дым 8/4 1200 м
[Sc diur, vesp Ac As]
+26.0 +19.1 66 +31 +37 очень
душно
1009.8 985.2
09 16.05 СВ 3 4000 м дым 8/4 1200 м
[Sc diur, vesp Ac As]
+30.5 +20.0 53 +37 +41 очень
душно
1008.2 984.0
12 16.05 З 3 4000 м мгла 8/4 1200 м
[Sc diur, vesp Ac As]
+31.5 +19.4 49 +37 +38 очень
душно
1006.2 982.1 +32.4
15 16.05 штиль 0 4000 м дым 4/0
[Ac trans]
+28.5 +20.2 61 +35 +35 очень
душно
1006.9 982.6
18 16.05 СЗ 3 4000 м дым 3/0
[Ac trans]
+26.0 +19.1 66 +31 +31 очень
душно
1008.2 983.6
21 16.05 Ю 3 4000 м дым 3/0
[Ac trans]
+25.0 +18.8 68 +30 +30 душно 1006.5 981.9
00 17.05 ЮЗ 2 4000 м дым 4/0
[Ac trans]
+22.5 +17.7 74 +28 +28 душно 1006.2 981.4
03 17.05 ЮЗ 8 4000 м дым 5/0
[Ac trans Ci fib]
+26.0 +16.4 55 +29 +30 душно 1008.0 983.4 +21.1
06 17.05 Ю 7 2000 м гроза, ливневой дождь 9/6 900 м
[Cb cap Ac As]
+22.0 +19.7 87 +28 +29 душно 1011.2 986.2 0.0
09 17.05 ЮВ 4 4000 м дым {гроза} 9/5 1200 м
[Sc diur, vesp Ac As]
+24.5 +17.3 64 +28 +31 душно 1008.5 983.8 0.0
12 17.05 ЮВ 3 н/о +27.5 +17.2 53 +31 +33 душно 1005.9 981.5 +28.0
15 17.05 В 4 4000 м дым 9/5 1200 м
[Sc diur, vesp Ac As]
+24.0 +17.6 67 +28 +28 душно 1008.2 983.5
21 17.05 С 2 4000 м дым 5/0
[Ac trans]
+20.0 +14.9 72 +23 +23 комфорт 1006.2 981.2
00 18.05 СЗ 4 4000 м дым 6/3 1200 м
[Sc diur, vesp Ac As]
+20.0 +15.8 77 +23 +23 комфорт 1007.4 982.3
03 18.05 С 4 4000 м дым 4/0
[Ac trans]
+24.5 +16.4 61 +28 +32 душно 1008.1 983.4 +19.6
06 18.05 З 4 4000 м мгла 3/0
[Ci fib]
+30.0 +15.6 42 +33 +45 душно 1008.1 983.8
09 18.05 СЗ 3 4000 м дым ясно +33.5 +14.1 31 +35 +49 душно 1006.4 982.5
12 18.05 З 6 4000 м мгла 3/0
[Ci fib]
+34.0 +14.8 32 +36 +37 душно 1005.2 981.3 +35.2
15 18.05 З 4 4000 м мгла 4/0
[Ci sp]
+30.0 +16.6 44 +33 +33 душно 1005.8 981.6
18 18.05 З 3 4000 м мгла 3/0
[Ac trans]
+27.5 +15.3 47 +30 +30 жарко 1006.2 981.8
21 18.05 ЮЗ 4 4000 м дым 3/0
[Ac trans]
+25.5 +15.7 55 +29 +29 душно 1006.3 981.7
00 19.05 З 2 4000 м дым 4/0
[Ac As]
+23.0 +16.5 67 +28 +28 душно 1005.7 980.9
03 19.05 З 3 4000 м дым ясно +29.5 +18.8 53 +35 +42 очень
душно
1006.8 982.5 +21.1
06 19.05 СЗ 3 4000 м мгла ясно +35.0 +18.3 37 +39 +57 опасность
солнечного
удара
1007.5 983.7
09 19.05 З 4 4000 м мгла ясно +37.5 +18.8 34 +42 +55 опасность
перегрева
1006.7 983.1
12 19.05 ЮЗ 5 4000 м мгла ясно +36.5 +18.4 35 +41 +43 опасность
перегрева
1004.4 980.7 +37.8
15 19.05 З 5 4000 м мгла 5/3 1200 м
[Sc diur, vesp Ac As]
+34.0 +18.9 41 +39 +39 очень
душно
1005.6 981.7
18 19.05 С 19 4000 м в посл. час гроза {метель} 8/4 1200 м
[Sc diur, vesp Ac As]
+26.0 +14.4 49 +28 +28 жарко 1010.1 985.5
21 19.05 СВ 4 4000 м дым 4/0
[Ac trans]
+25.0 +14.1 51 +27 +27 жарко 1007.8 983.2
00 20.05 штиль 0 50 км дым ?/? +23.0 +15.6 63 +27 +27 душно 1008.0 983.2
03 20.05 СЗ 2 н/о +29.0 +15.3 43 +32 +37 душно 1008.6 984.3 +22.6
06 20.05 СЗ 6 4000 м мгла 3/0
[Ac trans]
+34.0 +14.8 32 +36 +43 душно 1009.3 985.3
09 20.05 СЗ 6 4000 м мгла 1/0
[Ac trans]
+37.5 +13.3 24 +38 +44 очень
жарко
1007.6 983.9
12 20.05 СЗ 7 4000 м мгла ясно +37.0 +12.5 23 +37 +38 очень
жарко
1005.6 981.9 +38.5
00 21.05 ЮЗ 2 4000 м дым 3/0
[Ac trans]
+25.0 +16.1 58 +28 +28 жарко 1006.2 981.6
09 21.05 З 3 4000 м мгла ясно +39.5 +15.4 24 +41 +55 опасность
перегрева
1005.4 981.9
12 21.05 СЗ 4 4000 м мгла 4/4 1200 м
[Sc]
+40.0 +16.2 25 +42 +43 опасность
перегрева
1003.2 979.8 +41.8

 

Местоположение метеостанции Лахор аэропорт (Пакистан): широта 31.52 долгота 74.40 высота над уровнем моря 216 м.

В архиве по умолчанию представлена погода в Лахор аэропорту за последнюю неделю. Архивные данные за месяц целиком и за предыдущие месяцы, начиная с января 2011 года, Вы можете получить, выбрав интересующий диапазон дат из раскрывающегося списка и нажав кнопку "Ввод!".


*Определитесь, кто Вы:
робот инопланетянин человек

Внимание! Время в таблицах - всемирное. Для получения местного времени необходимо прибавить поправку, которая равна 5 ч.

Смотрите также архив погоды в соседних городах и на ближайших метеорологических станциях:

Погода в Лахоре (Пакистан) (7 км)
Погода в Амритсаре (Пенджаб, Индия) (46 км)
Погода в Касуре (Пакистан) (47 км)
Погода в Гуджранвале (Пакистан) (76 км)
Погода в Наровале (Пакистан) (79 км)
Погода в Хафизабаде (Пакистан) (94 км)
Погода в Сиялкоте (Пакистан) (110 км)
Погода в Гуджрате (Пакистан) (116 км)
Погода в Сиалкот аэропорту (Пакистан) (118 км)
Погода в Окаре (Пакистан) (122 км)

Пояснения к столбцам:

Ветер - указаны скорость ветра в м/с - средняя за 10 мин, порывы в срок и между сроками (в фигурных скобках) и направление, откуда дует ветер: С - северный, СВ - северо-восточный, В - восточный, ЮВ - юго-восточный, Ю - южный, ЮЗ - юго-западный, З - западный, СЗ - северо-западный.
Видимость - горизонтальная дальность видимости в метрах или километрах. При видимости от 1 до 10 км при отсутствии осадков обычно наблюдается дымка, при ухудшении видимости до 1 км и менее - туман. В сухую погоду видимость может ухудшаться дымом, пылью или мглою.
Явления - указаны атмосферные явления, наблюдавшиеся в срок или в последний час перед сроком; фигурными скобками обозначены явления, наблюдавшиеся между сроками (за 1-3 часа до срока); квадратными скобками обозначены град или гололедные отложения с указанием их диаметра в мм.
Облачность - указаны через наклонную черту общая и нижняя облачность в баллах и высота нижней границы облаков в метрах; квадратными скобками обозначены формы облаков: Ci - перистые, Cs - перисто-слоистые, Cc - перисто-кучевые, Ac - высококучевые, As - высокослоистые, Sc - слоисто-кучевые, Ns - слоисто-дождевые, Cu - кучевые, Cb - кучево-дождевые. Подробнее классификацию облаков см. в Атласе облаков (PDF).
T - Температура воздуха - температура, измеренная на высоте 2 м над землей.
Td - Температура точки росы - температура, при понижении до которой содержащийся в воздухе водяной пар достигнет насыщения.
f - Относительная влажность воздуха - влажноcть воздуха, измеренная на высоте 2 м над землей.
Te - Эффективная температура - температура, которую ощущает одетый по сезону человек в тени. Характеристика душности погоды. При расчете учитывается влияние влажности воздуха и скорости ветра на теплоощущения человека.
Tes - Эффективная температура на солнце - температура, которую ощущает человек, с поправкой на солнечный нагрев. Характеристика знойности погоды. Зависит от высоты солнца над горизонтом, облачности и скорости ветра. Ночью, в пасмурную погоду, а также при ветре 12 м/с и более поправка равна нулю.
P - Атмосферное давление - приведенное к уровню моря атмосферное давление.
Po - Атмосферное давление - измеренное на уровне метеостанции атмосферное давление.
Tmin - Минимальная температура - минимум температуры воздуха на высоте 2 м над землей.
Tmax - Максимальная температура - максимум температуры воздуха на высоте 2 м над землей.
R - Количество осадков - Количество выпавших осадков за период времени, мм. При наведении курсора мыши на число - период времени, за который выпало указанное количество осадков.
R24 - Количество осадков - Количество выпавших осадков за 24 часа, мм.
S - Снежный покров - Высота снежного покрова, см. При наведении курсора мыши на число - состояние снежного покрова и степень покрытия местности в баллах.